Theta_e
321 318 319 320 320 323 324 325 326 327 328 330 329 334 333 334 335 334 335 335 339 339 339 337 338 336 335 333 331 332 334 336 336 334 331 325 320 319 320 321 317 310 306
322 322 322 321 322 323 324 325 326 326 327 330 329 333 334 333 335 333 333 332 331 334 338 337 338 337 337 333 333 335 335 335 332 328 323 320 322 322 319 310 306 305 310
322 323 323 323 323 324 324 325 325 325 327 330 331 333 334 332 333 334 332 329 328 338 335 336 336 336 337 336 334 334 334 333 329 323 321 322 321 313 309 307 310 314 313
323 323 323 323 323 324 325 326 325 326 327 331 334 334 333 332 334 334 329 330 333 337 335 335 336 335 336 336 335 334 333 329 325 322 321 320 313 311 307 313 316 313 315
324 324 324 324 323 324 325 325 326 326 328 331 331 332 332 334 333 332 330 331 334 332 333 335 335 335 335 336 338 334 330 326 323 322 319 318 316 308 309 316 315 315 312
325 325 325 325 325 326 325 326 326 326 329 331 332 333 332 333 333 332 332 331 331 330 331 332 333 334 335 335 335 332 327 324 323 321 319 318 311 310 311 312 311 310 309
324 324 322 321 324 326 327 326 326 328 330 331 331 331 331 331 330 328 329 332 329 329 331 334 334 333 334 334 333 332 328 325 323 322 317 311 311 312 311 310 310 310 311
323 325 325 325 327 327 327 327 328 329 330 330 330 330 330 329 330 330 331 332 332 331 331 332 333 333 333 334 333 332 330 325 324 319 313 312 312 310 310 309 310 311 313
325 327 327 327 328 327 328 328 329 330 330 330 330 330 331 332 326 327 332 332 332 332 331 331 332 332 332 332 331 330 328 326 323 317 312 315 317 314 311 311 311 312 314
327 327 327 327 327 328 328 328 329 330 330 329 330 330 330 329 327 327 327 330 331 330 331 331 331 332 331 331 331 331 329 328 322 317 317 317 321 315 310 311 312 315 317
326 326 326 326 327 327 326 328 329 329 329 329 329 328 328 327 327 327 325 321 328 329 330 330 331 331 332 331 331 330 328 325 317 318 317 319 312 310 310 310 311 311 313
325 326 327 327 327 328 328 328 327 328 329 329 328 328 327 327 326 325 325 319 319 321 325 326 329 329 329 327 327 325 323 318 315 311 309 308 308 308 308 307 307 308 310
327 327 327 327 328 328 328 328 327 327 328 328 327 327 328 326 327 326 322 314 315 315 316 322 324 325 325 324 322 320 318 314 308 308 308 308 308 308 307 307 306 304 304
328 328 325 327 328 328 327 328 328 328 327 328 327 328 327 327 328 328 324 315 307 308 311 315 322 317 315 320 311 310 309 309 309 310 310 310 309 307 307 304 301 300 301
328 328 328 329 329 329 327 327 327 328 328 327 327 328 328 328 327 327 326 324 314 314 312 310 312 310 310 310 310 309 310 311 312 313 312 310 307 305 302 300 299 300 300
323 322 325 327 328 330 329 328 329 328 328 326 327 327 327 327 327 326 326 321 313 307 311 310 311 313 314 314 314 315 316 317 315 313 310 307 305 303 301 300 299 299 297
321 322 324 326 327 327 327 328 327 328 328 327 328 327 326 326 326 326 323 314 309 306 312 312 312 314 315 315 315 315 319 318 314 311 307 305 304 302 301 299 298 297 296
319 319 323 326 326 326 326 326 326 324 324 326 327 327 326 326 326 324 321 314 309 309 313 315 314 314 315 315 315 316 315 311 309 305 304 303 302 301 299 297 297 296 294
319 319 319 321 323 324 325 325 327 325 324 323 323 322 322 322 321 321 319 312 315 312 313 314 314 315 314 314 315 313 310 306 303 302 302 301 300 298 293 293 294 295 294
319 319 319 319 318 317 317 317 318 318 317 319 316 316 316 317 318 317 318 318 316 315 316 314 315 313 311 310 310 309 305 303 302 301 300 298 296 294 292 293 293 294 294
319 320 319 319 319 319 319 320 320 320 321 321 319 315 316 321 319 318 318 319 317 317 317 315 312 310 308 306 308 308 306 305 303 301 299 296 293 292 292 293 293 292 292
319 320 318 318 318 318 318 318 319 319 319 319 320 319 319 318 318 317 317 316 318 318 319 315 311 311 311 309 307 307 306 302 301 301 299 296 293 292 292 292 292 292 292
318 318 318 318 319 319 318 317 317 316 316 315 315 315 315 314 311 311 313 314 315 316 315 317 316 314 313 314 310 306 304 302 301 300 301 298 294 292 292 292 292 292 292
316 317 317 317 316 315 315 312 310 310 311 309 307 307 307 305 303 303 307 310 312 313 314 314 314 315 314 313 311 308 305 301 299 300 300 299 297 294 293 292 293 292 292
313 314 314 314 313 312 311 310 308 306 305 302 299 298 298 298 299 299 301 304 307 308 310 309 309 307 305 306 302 302 299 298 300 299 299 298 297 296 294 293 293 293 292
311 311 311 311 311 312 312 311 310 306 303 301 301 302 300 301 299 298 298 299 299 299 299 300 300 300 298 297 296 297 298 298 298 298 299 297 297 295 295 294 294 294 293
Wind_Speed
4 9 11 11 12 9 10 13 16 18 18 19 18 25 27 27 27 30 30 29 27 27 26 26 26 27 27 28 27 27 24 21 20 18 16 16 16 13 11 10 8 8 9
5 9 11 11 11 10 9 10 13 16 19 19 19 25 28 27 29 30 30 30 25 26 28 28 29 28 26 27 27 25 23 20 18 18 16 15 14 11 10 9 8 8 9
5 7 9 10 11 11 10 11 13 14 15 17 21 26 30 28 30 29 27 29 25 27 29 29 28 28 26 25 24 24 21 19 18 17 15 13 12 10 9 8 9 11 12
8 7 9 11 13 12 12 14 17 16 18 21 21 27 28 29 29 30 32 26 23 29 29 29 28 28 27 25 24 23 20 19 18 16 13 12 11 9 7 9 11 12 13
4 9 10 12 14 16 17 19 20 20 21 22 23 25 27 29 31 28 28 21 20 20 24 26 27 28 28 26 24 22 20 19 17 14 12 11 7 8 9 11 12 13 13
4 12 14 15 15 20 20 23 25 22 22 26 25 25 24 26 27 28 24 22 21 22 20 22 22 24 25 25 24 21 20 18 15 13 9 8 8 10 11 11 12 12 11
8 14 15 12 12 20 23 26 26 27 25 32 25 27 27 28 28 29 23 21 22 19 17 20 21 19 21 22 19 20 18 16 14 10 9 9 9 10 10 10 10 10 10
13 11 13 15 17 23 24 26 29 25 28 28 20 23 7 16 21 23 22 19 21 21 21 21 21 23 23 23 20 18 17 15 12 10 11 10 10 10 9 9 8 8 8
14 18 21 21 21 23 21 28 23 28 25 25 27 7 6 4 12 17 21 22 25 25 21 20 19 19 20 18 16 14 12 11 12 11 10 10 9 8 8 7 7 6 6
21 20 14 15 21 21 24 25 22 24 32 22 19 20 7 21 4 4 24 23 22 20 17 18 19 19 17 17 13 10 10 10 13 11 10 9 8 6 7 6 4 4 4
16 13 16 16 17 23 22 24 25 28 31 23 24 25 24 21 15 8 6 11 21 16 14 14 13 14 14 13 10 12 10 12 11 9 9 9 8 7 6 4 3 2 4
5 10 8 12 16 25 29 26 27 22 22 22 26 26 22 13 19 13 7 9 11 10 14 14 14 14 13 13 12 12 12 11 10 9 10 10 8 6 5 4 5 4 5
6 6 6 5 12 19 26 30 24 22 19 25 24 26 22 26 27 24 20 8 5 4 6 9 11 12 13 13 13 12 12 10 11 11 10 8 6 5 5 4 4 4 5
18 15 14 8 7 18 20 19 18 17 16 22 25 27 26 28 30 32 23 20 4 4 3 7 11 12 12 14 14 13 14 12 11 9 6 5 5 5 4 3 3 2 3
15 12 7 6 10 18 19 17 16 14 14 17 21 29 27 29 25 25 25 27 14 3 1 6 5 11 13 14 14 14 13 11 9 8 7 6 6 5 3 2 3 1 1
6 8 8 9 11 15 18 19 14 17 12 20 24 23 27 29 27 22 22 19 9 15 4 6 8 15 15 14 13 12 10 9 10 8 9 9 7 5 2 0 0 2 1
9 12 13 10 13 16 16 16 16 18 18 21 18 19 23 24 22 18 20 11 10 13 17 10 16 17 14 12 13 12 9 9 11 12 11 9 6 3 1 1 4 2 2
15 13 13 15 15 15 18 19 21 19 22 23 21 21 21 18 18 19 19 11 15 19 30 19 17 14 13 14 13 12 12 12 13 12 10 8 5 3 2 5 4 3 2
15 17 17 17 18 18 17 16 16 15 16 20 21 22 22 21 20 17 17 12 12 24 23 26 16 14 13 15 15 15 15 14 12 11 10 7 5 3 3 4 5 3 1
13 15 17 18 19 19 19 17 17 16 17 16 15 16 18 15 14 13 12 14 16 22 19 23 20 18 17 16 16 19 17 15 15 14 13 10 7 5 4 4 5 5 2
13 16 17 17 16 15 16 16 16 17 17 17 16 15 14 12 12 11 9 10 17 19 19 20 18 14 16 17 19 19 20 17 16 17 17 12 9 6 6 7 7 3 3
13 14 15 14 13 12 11 10 10 13 13 13 13 12 11 10 9 8 8 8 11 14 17 21 18 22 23 22 20 19 19 14 7 19 19 16 13 10 10 9 5 2 3
13 13 13 12 11 9 7 6 6 7 9 9 9 9 9 8 7 6 7 8 10 9 10 17 24 23 24 24 23 21 23 23 15 13 22 19 15 12 11 11 4 1 4
14 14 13 11 9 7 7 7 7 8 8 8 8 7 6 7 7 7 9 10 10 12 12 14 14 16 17 16 21 21 20 19 16 15 19 11 18 16 13 14 8 3 5
17 16 14 11 10 9 9 8 8 8 9 9 9 9 8 8 7 7 7 8 8 8 8 10 11 11 12 13 14 17 18 18 9 13 19 13 14 18 16 16 15 6 7
14 13 12 12 11 11 12 11 9 8 8 8 8 7 7 6 6 5 5 4 4 5 6 8 9 10 11 12 15 17 16 20 12 8 20 16 15 14 5 13 18 10 10
Wind_Direction
174 186 192 201 210 214 204 204 196 194 194 189 193 187 181 171 163 159 158 162 163 163 163 158 154 150 147 144 144 136 137 138 138 131 129 127 122 117 106 96 81 67 57
182 179 185 191 195 194 187 194 188 193 191 190 193 188 180 176 174 163 157 154 164 167 163 159 156 152 150 146 143 139 139 139 135 129 130 126 116 104 87 74 66 62 71
247 217 196 189 188 189 185 180 178 184 182 188 187 188 181 176 172 164 151 156 167 171 163 159 156 151 149 146 147 141 142 140 137 130 133 118 98 86 74 69 78 78 72
245 221 190 188 187 184 179 174 174 173 181 180 174 184 175 174 164 153 154 161 180 166 159 157 155 155 148 148 142 142 144 139 138 132 124 108 89 82 87 93 85 78 78
243 203 183 181 180 173 171 174 171 172 173 169 171 166 164 156 160 153 161 164 160 160 159 157 159 154 151 146 139 141 143 140 136 128 116 92 89 89 92 95 89 84 75
160 168 158 161 165 168 169 168 163 168 159 149 141 134 149 150 150 151 148 150 147 157 159 155 156 155 150 145 138 138 141 140 132 121 107 92 93 98 99 97 88 80 75
156 162 160 159 167 169 164 166 160 154 148 140 127 116 114 124 128 137 146 155 157 165 160 164 148 153 147 138 135 139 141 138 128 118 111 105 106 107 103 97 86 79 73
141 138 149 148 153 156 150 157 151 150 143 139 135 123 119 110 120 140 158 163 165 164 162 156 143 148 148 134 141 140 136 133 126 126 120 111 105 108 108 98 90 77 68
102 98 120 136 130 148 126 146 153 145 135 134 132 144 120 123 113 102 127 132 141 143 145 136 138 136 132 126 138 140 132 128 129 120 121 120 112 109 110 100 85 75 65
81 83 99 118 127 131 124 151 131 142 140 132 126 135 122 146 118 130 96 106 129 129 122 120 128 128 126 137 141 147 130 136 131 124 122 120 130 136 112 106 87 60 47
77 88 77 95 116 126 147 144 119 137 142 130 138 123 120 124 124 126 109 97 102 113 128 132 133 136 148 134 140 150 146 139 128 131 128 149 145 136 123 117 104 69 53
52 51 69 98 102 131 132 124 110 125 147 133 139 134 138 143 138 131 121 95 114 103 117 128 134 145 134 133 143 154 145 139 142 146 157 148 142 137 127 108 90 68 56
148 143 119 93 112 120 131 113 113 117 131 142 145 141 148 135 140 133 124 110 110 119 107 122 137 135 138 143 145 143 144 145 143 149 148 141 143 130 119 99 80 60 66
131 131 159 170 144 137 140 148 120 129 143 160 150 154 145 149 153 151 149 137 96 93 126 125 146 145 144 142 140 146 146 153 150 152 153 163 158 139 113 90 70 80 70
136 142 161 161 151 143 156 159 160 150 150 157 151 158 156 157 169 171 168 165 133 137 115 150 146 154 143 140 143 150 157 159 166 187 185 169 152 140 120 96 59 35 352
102 116 129 130 137 154 168 173 182 179 171 163 165 159 163 167 175 178 176 168 157 141 120 130 138 152 148 148 157 159 166 185 194 189 178 164 163 156 134 281 179 193 262
95 107 121 120 123 127 142 149 142 144 146 162 160 162 168 170 174 177 175 170 158 159 126 134 147 157 161 167 167 172 185 187 177 175 174 178 180 176 164 228 192 189 324
105 106 128 131 129 127 129 128 133 129 126 135 143 148 149 155 167 173 176 178 158 163 148 140 151 163 175 174 176 176 166 164 166 174 186 190 195 211 198 189 220 277 309
115 109 110 122 125 128 125 123 123 121 118 124 132 138 142 154 157 164 170 156 159 165 159 160 158 169 162 170 168 169 167 167 167 177 190 197 205 216 217 204 220 246 265
128 130 121 115 115 118 119 121 126 128 124 128 133 138 138 140 141 152 169 181 174 173 172 170 168 169 169 172 178 173 170 174 175 184 191 193 196 202 216 205 186 184 287
142 137 132 129 125 124 124 125 124 125 126 126 127 135 146 148 151 156 158 167 184 178 180 178 171 176 184 185 192 190 193 191 195 195 193 191 190 192 187 177 172 187 301
152 155 150 142 138 135 133 137 151 152 150 147 147 150 154 161 166 171 181 199 200 199 197 189 190 197 202 206 203 202 198 190 211 211 204 198 195 188 184 180 173 194 317
169 163 162 163 161 157 155 161 177 180 176 174 179 180 180 183 186 192 192 200 213 223 234 222 210 215 218 222 217 214 214 213 213 211 205 206 204 199 195 186 172 208 309
185 187 187 187 189 187 194 196 196 191 181 172 166 165 170 170 171 172 179 189 202 214 220 217 226 236 240 240 233 236 232 224 224 215 206 213 217 213 212 214 208 238 297
190 194 198 200 203 197 193 189 187 181 176 173 174 175 178 179 178 179 182 189 194 203 221 233 244 254 253 245 235 223 208 198 210 216 215 215 217 219 228 229 215 247 292
199 201 204 210 213 211 201 198 197 192 190 190 196 206 211 211 217 214 219 234 249 272 272 275 273 263 252 239 231 227 231 209 210 218 222 211 218 207 229 232 211 245 276